Eastsound, WA
on Monday, November 26, 2012

Monday
Previous Day Next Day
Daily Summary
 ActualAverage (KBLI)Record (KBLI)
Temperature
Mean Temperature °F 41°F  
Max Temperature 42°F 47°F 66°F (1950)
Min Temperature 39°F 35°F 9°F (1985)
Degree Days
Heating Degree Days 24 24  
Month to date heating degree days 554  
Cooling Degree Days 0 0  
Month to date cooling degree days 0  
Year to date cooling degree days 42  
Moisture
Dew Point 33°F   
Average Humidity 75    
Maximum Humidity 87    
Minimum Humidity 66    
Precipitation
Precipitation 0.00 in 0.18 in 1.12 in (1963)
Month to date precipitation 5.06  
Year to date precipitation 30.87  
Wind
Wind Speed 5 mph   
Max Wind Speed 8 mph   
Max Gust Speed mph   
Visibility 10 miles   
Events     

Key: T is trace of precipitation, MM is missing value
Source: NWS Daily Summary
Time(PST)TemperatureDew PointHumidity Pressure Visibility Wind DirectionWind SpeedGust SpeedPrecipitationEvents Conditions
12:15 AM 41.0°F 35.6°F 81% 30.27 in 10.0 miles NNE 5.8 mph - N/A   Clear
12:35 AM 41.0°F 35.6°F 81% 30.26 in 10.0 miles North 4.6 mph - N/A   Clear
12:55 AM 41.0°F 35.6°F 81% 30.25 in 10.0 miles North 4.6 mph - N/A   Clear
1:15 AM 41.0°F 35.6°F 81% 30.24 in 10.0 miles North 5.8 mph - N/A   Clear
1:35 AM 41.0°F 35.6°F 81% 30.23 in 10.0 miles NNE 3.5 mph - N/A   Clear
1:55 AM 41.0°F 33.8°F 76% 30.23 in 10.0 miles NNE 3.5 mph - N/A   Clear
2:15 AM 41.0°F 33.8°F 76% 30.23 in 10.0 miles NNE 4.6 mph - N/A   Clear
2:35 AM 41.0°F 32.0°F 70% 30.23 in 10.0 miles NE 5.8 mph - N/A   Clear
2:55 AM 41.0°F 32.0°F 70% 30.22 in 10.0 miles NNE 5.8 mph - N/A   Clear
3:15 AM 41.0°F 32.0°F 70% 30.21 in 10.0 miles NE 4.6 mph - N/A   Clear
3:35 AM 41.0°F 32.0°F 70% 30.21 in 10.0 miles NE 8.1 mph - N/A   Clear
3:55 AM 41.0°F 32.0°F 70% 30.21 in 10.0 miles NNE 4.6 mph - N/A   Clear
4:15 AM 41.0°F 32.0°F 70% 30.21 in 10.0 miles NE 6.9 mph - N/A   Clear
4:35 AM 41.0°F 32.0°F 70% 30.20 in 10.0 miles NNE 6.9 mph - N/A   Clear
4:55 AM 41.0°F 32.0°F 70% 30.20 in 10.0 miles NE 6.9 mph - N/A   Clear
5:15 AM 39.2°F 33.8°F 81% 30.19 in 10.0 miles NNE 5.8 mph - N/A   Clear
5:35 AM 41.0°F 32.0°F 70% 30.19 in 10.0 miles North 6.9 mph - N/A   Clear
5:55 AM 41.0°F 32.0°F 70% 30.19 in 10.0 miles ENE 8.1 mph - N/A   Clear
6:15 AM 41.0°F 32.0°F 70% 30.18 in 10.0 miles NE 3.5 mph - N/A   Clear
6:55 AM 39.2°F 32.0°F 75% 30.17 in 10.0 miles NE 6.9 mph - N/A   Clear
7:15 AM 39.2°F 32.0°F 75% 30.18 in 10.0 miles Calm Calm - N/A   Clear
7:35 AM 39.2°F 32.0°F 75% 30.16 in 10.0 miles NNE 8.1 mph - N/A   Clear
7:55 AM 39.2°F 32.0°F 75% 30.16 in 10.0 miles NNE 6.9 mph - N/A   Clear
8:15 AM 39.2°F 32.0°F 75% 30.15 in 10.0 miles NNE 6.9 mph - N/A   Clear
8:35 AM 39.2°F 32.0°F 75% 30.15 in 10.0 miles Calm Calm - N/A   Clear
8:55 AM 39.2°F 32.0°F 75% 30.15 in 10.0 miles Calm Calm - N/A   Clear
9:15 AM 39.2°F 32.0°F 75% 30.15 in 10.0 miles North 5.8 mph - N/A   Clear
9:35 AM 39.2°F 32.0°F 75% 30.16 in 10.0 miles North 4.6 mph - N/A   Clear
9:55 AM 39.2°F 32.0°F 75% 30.15 in 10.0 miles NNE 4.6 mph - N/A   Clear
10:15 AM 39.2°F 32.0°F 75% 30.14 in 10.0 miles NNE 5.8 mph - N/A   Clear
10:35 AM 41.0°F 32.0°F 70% 30.15 in 10.0 miles NNE 5.8 mph - N/A   Clear
10:55 AM 41.0°F 32.0°F 70% 30.15 in 10.0 miles NNE 3.5 mph - N/A   Clear
11:15 AM 41.0°F 32.0°F 70% 30.14 in 10.0 miles NNE 3.5 mph - N/A   Clear
11:35 AM 41.0°F 32.0°F 70% 30.14 in 10.0 miles North 4.6 mph - N/A   Clear
11:55 AM 41.0°F 32.0°F 70% 30.13 in 10.0 miles NNE 5.8 mph - N/A   Clear
12:15 PM 42.8°F 32.0°F 66% 30.13 in 10.0 miles North 8.1 mph - N/A   Clear
12:35 PM 42.8°F 32.0°F 66% 30.12 in 10.0 miles NNE 6.9 mph - N/A   Clear
12:55 PM 42.8°F 33.8°F 70% 30.11 in 10.0 miles North 8.1 mph - N/A   Clear
1:15 PM 42.8°F 35.6°F 76% 30.11 in 10.0 miles North 8.1 mph - N/A   Clear
1:35 PM 42.8°F 35.6°F 76% 30.10 in 10.0 miles North 8.1 mph - N/A   Clear
1:55 PM 42.8°F 35.6°F 76% 30.10 in 10.0 miles North 6.9 mph - N/A   Clear
2:15 PM 42.8°F 33.8°F 70% 30.09 in 10.0 miles North 6.9 mph - N/A   Clear
2:35 PM 42.8°F 33.8°F 70% 30.08 in 10.0 miles North 5.8 mph - N/A   Clear
2:55 PM 42.8°F 33.8°F 70% 30.08 in 10.0 miles North 5.8 mph - N/A   Clear
3:15 PM 42.8°F 35.6°F 76% 30.08 in 10.0 miles NW 8.1 mph - N/A   Clear
3:35 PM 42.8°F 35.6°F 76% 30.08 in 10.0 miles NNW 6.9 mph - N/A   Clear
3:55 PM 41.0°F 35.6°F 81% 30.08 in 10.0 miles North 6.9 mph - N/A   Clear
4:15 PM 41.0°F 35.6°F 81% 30.08 in 10.0 miles North 6.9 mph - N/A   Clear
4:35 PM 41.0°F 35.6°F 81% 30.08 in 10.0 miles North 6.9 mph - N/A   Clear
4:55 PM 41.0°F 35.6°F 81% 30.07 in 10.0 miles North 5.8 mph - N/A   Clear
5:15 PM 41.0°F 37.4°F 87% 30.07 in 10.0 miles Calm Calm - N/A   Clear
5:35 PM 41.0°F 37.4°F 87% 30.07 in 10.0 miles North 6.9 mph - N/A   Clear
5:55 PM 41.0°F 35.6°F 81% 30.07 in 10.0 miles Calm Calm - N/A   Clear
6:15 PM 41.0°F 35.6°F 81% 30.07 in 10.0 miles Calm Calm - N/A   Clear
6:35 PM 41.0°F 35.6°F 81% 30.07 in 10.0 miles NNE 4.6 mph - N/A   Clear
6:55 PM 41.0°F 35.6°F 81% 30.07 in 10.0 miles North 5.8 mph - N/A   Clear
7:15 PM 41.0°F 37.4°F 87% 30.07 in 10.0 miles North 3.5 mph - N/A   Clear
7:35 PM 41.0°F 37.4°F 87% 30.07 in 10.0 miles North 4.6 mph - N/A   Clear
7:55 PM 41.0°F 37.4°F 87% 30.07 in 10.0 miles North 5.8 mph - N/A   Clear
8:15 PM 41.0°F 32.0°F 70% 30.07 in 10.0 miles Calm Calm - N/A   Clear
8:35 PM 41.0°F 32.0°F 70% 30.07 in 10.0 miles Calm Calm - N/A   Clear
8:55 PM 41.0°F 32.0°F 70% 30.07 in 10.0 miles NNE 4.6 mph - N/A   Clear
9:15 PM 41.0°F 32.0°F 70% 30.07 in 10.0 miles North 5.8 mph - N/A   Clear
9:35 PM 41.0°F 32.0°F 70% 30.07 in 10.0 miles North 5.8 mph - N/A   Clear
9:55 PM 41.0°F 32.0°F 70% 30.08 in 10.0 miles North 4.6 mph - N/A   Clear
10:15 PM 41.0°F 32.0°F 70% 30.08 in 10.0 miles NNE 4.6 mph - N/A   Clear
10:35 PM 41.0°F 32.0°F 70% 30.08 in 10.0 miles North 3.5 mph - N/A   Clear
10:55 PM 41.0°F 32.0°F 70% 30.08 in 10.0 miles NNE 3.5 mph - N/A   Clear
11:15 PM 41.0°F 32.0°F 70% 30.08 in 10.0 miles NNE 4.6 mph - N/A   Clear
11:55 PM 41.0°F 32.0°F 70% 30.09 in 10.0 miles Calm Calm - N/A   Clear
Moon Phase
Nov. 26 Nov. 28 Dec. 06 Dec. 13 Dec. 20
Sunrise:07:37 AM (PST) Moon Rise:03:20 PM (PST)11/26
Sunset:04:20 PM (PST) Moon Set:05:47 AM (PST)11/26

Copyright © 2014 The Weather Underground, Inc.